"TOA5","AWS1","CR1000","7964","CR1000.Std.14","CPU:AWS1_114.CR1","64363","TBL110"
"TIMESTAMP","RECORD","Wind_spd_WVc(1)","Wind_spd_WVc(2)","Air_Temp_Avg","Humidity_Avg","SW_upper_Wm2_Avg","Rain_Tot","Press_Avg","Issui_Tot","Depth_cm","SR50A_Raw","Quality","Ground_Temp_Avg(1)","Ground_Temp_Avg(2)","SW_lower_Wm2_Avg","Albedo_Avg","SWC_per(1)","SWC_per(2)","Period(1)","Period(2)"
"TS","RN","","","","","","","","","","","","","","","","","","",""
"","","WVc","WVc","Avg","Avg","Avg","Tot","Avg","Tot","Smp","Smp","Smp","Avg","Avg","Avg","Avg","Smp","Smp","Smp","Smp"
"2016-02-27 00:00:00",224269,0.48,199.5,-6.913,87.4,0,0,870.9082,0,25.02,2.968,193,0.666,1.271,0.2503107,0,51.6,59.73,33.69,35.62
"2016-02-27 00:10:00",224270,0.435,231.4,-6.969,90,0,0,870.9918,0,24.92,2.969,187,0.668,1.274,0.1744611,0,51.55,59.73,33.68,35.62
"2016-02-27 00:20:00",224271,0.469,228.3,-6.978,88.1,0,0,871.1571,0,25.04,2.968,190,0.672,1.277,0.007585347,0,51.6,59.73,33.69,35.62
"2016-02-27 00:30:00",224272,0.764,289.8,-7.031,86.4,0,0,871.1644,0,25.14,2.967,181,0.674,1.28,0,0,51.55,59.73,33.68,35.62
"2016-02-27 00:40:00",224273,0.38,267.1,-7.227,86,0,0,871.2255,0,25.18,2.968,186,0.67,1.276,0,0,51.6,59.73,33.69,35.62
"2016-02-27 00:50:00",224274,0.34,233.9,-7.511,86.8,0,0,871.3947,0,24.81,2.973,180,0.665,1.27,0,0,51.66,59.73,33.7,35.62
"2016-02-27 01:00:00",224275,0.318,161.5,-7.598,85.1,0,0,871.2445,0,24.97,2.973,185,0.669,1.274,0,0,51.55,59.73,33.68,35.62
"2016-02-27 01:10:00",224276,0.662,170.4,-7.942,84.2,0,0,871.0994,0,24.94,2.974,177,0.682,1.287,0,0,51.55,59.73,33.68,35.62
"2016-02-27 01:20:00",224277,0.987,185.5,-7.758,82.8,0,0,870.9435,0,24.96,2.972,172,0.694,1.3,0.0113793,0,51.6,59.73,33.69,35.62
"2016-02-27 01:30:00",224278,1.271,170.8,-7.585,78.44,0,0,870.807,0,24.98,2.972,177,0.708,1.313,0.09862326,0,51.6,59.73,33.69,35.62
"2016-02-27 01:40:00",224279,1.179,162.5,-7.542,73.77,0,0,870.7243,0,24.73,2.974,177,0.696,1.318,0.05689961,0,51.55,59.73,33.68,35.62
"2016-02-27 01:50:00",224280,1.347,169.9,-7.293,62.17,0,0,870.509,0,24.69,2.972,177,0.672,1.319,0.254154,0,51.55,59.73,33.68,35.62
"2016-02-27 02:00:00",224281,0.933,206.8,-7.399,61.06,0,0,870.4273,0,25.23,2.967,185,0.66,1.32,0.02655381,0,51.55,59.73,33.68,35.62
"2016-02-27 02:10:00",224282,0.931,181.8,-7.366,58.49,0,0,870.3177,0,25.27,2.97,188,0.645,1.316,0.102422,0,51.55,59.73,33.68,35.62
"2016-02-27 02:20:00",224283,0.904,191.6,-7.416,55.73,0,0,870.2123,0,25.13,2.968,181,0.631,1.26,0.1062159,0,51.6,59.73,33.69,35.62
"2016-02-27 02:30:00",224284,1.076,188.8,-7.411,55.02,0,0,870.2123,0,25.3,2.967,180,0.609,1.241,0.06448825,0,51.55,59.73,33.68,35.62
"2016-02-27 02:40:00",224285,0.68,190.8,-7.475,54.11,0,0,870.2081,0,25.01,2.969,180,0.569,1.22,0.06828168,0,51.6,59.73,33.69,35.62
"2016-02-27 02:50:00",224286,0.696,239,-7.142,51.01,0,0,870.2503,0,24.84,2.97,186,0.589,1.211,0.1593239,0,51.55,59.73,33.68,35.62
"2016-02-27 03:00:00",224287,0.758,178.2,-7.352,52.67,0,0,870.2123,0,24.33,2.98,171,0.586,1.207,0.06828168,0,51.55,59.73,33.68,35.62
"2016-02-27 03:10:00",224288,0.906,181.1,-7.683,53.68,0,0,870.2039,0,25.33,2.966,176,0.588,1.212,0.1782911,0,51.6,59.73,33.69,35.62
"2016-02-27 03:20:00",224289,0.964,167.1,-6.956,46.42,0,0,870.2081,0,25.01,2.969,183,0.578,1.199,0.5538403,0,51.55,59.67,33.68,35.6
"2016-02-27 03:30:00",224290,0.871,176.3,-7.193,46.68,0,0,870.1934,0,25.23,2.966,183,0.575,1.197,0.1555305,0,51.6,59.67,33.69,35.6
"2016-02-27 03:40:00",224291,0.882,172.6,-7.091,45.32,0,0,870.128,0,24.64,2.973,193,0.569,1.199,0.1972582,0,51.6,59.67,33.69,35.6
"2016-02-27 03:50:00",224292,1.434,174.6,-7.222,44.83,0,0,869.9362,0,25.38,2.964,192,0.577,1.202,0.3565821,0,51.55,59.67,33.68,35.6
"2016-02-27 04:00:00",224293,0.946,168.8,-6.68,39.09,0,0,869.9698,0,25.34,2.962,192,0.557,1.194,0.595568,0,51.55,59.67,33.68,35.6
"2016-02-27 04:10:00",224294,1.089,177.2,-6.839,42.02,0,0,869.7991,0,24.64,2.973,184,0.574,1.187,0.204845,0,51.55,59.67,33.68,35.6
"2016-02-27 04:20:00",224295,1.024,172.2,-7.157,43.88,0,0,869.7591,0,24.89,2.968,192,0.571,1.202,0.204845,0,51.55,59.67,33.68,35.6
"2016-02-27 04:30:00",224296,0.643,182.3,-6.557,41.09,0,0,869.8729,0,25.15,2.964,176,0.58,1.192,0.8611079,0,51.55,59.67,33.68,35.6
"2016-02-27 04:40:00",224297,0.698,177.7,-6.291,39.46,0,0,869.9593,0,24.61,2.968,179,0.604,1.187,0.933183,0,51.55,59.67,33.68,35.6
"2016-02-27 04:50:00",224298,0.569,135.5,-6.413,45.02,0,0,869.9045,0,25.29,2.964,183,0.623,1.2,0.6145352,0,51.55,59.73,33.68,35.62
"2016-02-27 05:00:00",224299,0.855,160.1,-6.347,46.61,0,0,869.7359,0,25.17,2.963,188,0.599,1.178,0.6600563,0,51.55,59.67,33.68,35.6
"2016-02-27 05:10:00",224300,0.484,241.9,-6.4,49.69,0,0,869.8771,0,24.91,2.964,192,0.59,1.227,0.1631174,0,51.55,59.67,33.68,35.6
"2016-02-27 05:20:00",224301,0.509,199.8,-6.454,50.57,0,0,869.9045,0,24.55,2.971,174,0.607,1.218,0.2276056,0,51.55,59.67,33.68,35.6
"2016-02-27 05:30:00",224302,0.925,168.2,-6.53,52.02,0,0,869.7317,0,24.91,2.965,189,0.582,1.195,0.3679624,0,51.55,59.73,33.68,35.62
"2016-02-27 05:40:00",224303,1.026,165.1,-6.362,53.13,0,0,869.5799,0,24.78,2.967,174,0.604,1.205,0.6297089,0,51.55,59.67,33.68,35.6
"2016-02-27 05:50:00",224304,1.246,167.2,-6.26,54.21,0,0,869.4533,0,24.42,2.969,174,0.636,1.243,0.6335022,0,51.49,59.67,33.66,35.6
"2016-02-27 06:00:00",224305,0.971,167.3,-6.08,54.11,0,0,869.369,0,24.66,2.966,174,0.669,1.24,0.5083192,0,51.55,59.73,33.68,35.62
"2016-02-27 06:10:00",224306,1.109,162.1,-6.061,54.85,0,0,869.4576,0,24.86,2.964,182,0.653,1.257,0.5386666,0,51.55,59.73,33.68,35.62
"2016-02-27 06:20:00",224307,0.492,174.3,-5.972,54.92,0,0,869.4597,0,24.82,2.964,179,0.666,1.244,0.8231736,0,51.55,59.67,33.68,35.6
"2016-02-27 06:30:00",224308,0.638,177.3,-5.989,54.91,0,0,869.4533,0,24.62,2.966,179,0.671,1.255,2.647812,0,51.49,59.67,33.66,35.6
"2016-02-27 06:40:00",224309,0.853,175.6,-5.893,54.73,0.6334245,0,869.3585,0,24.42,2.968,170,0.647,1.253,5.477708,6.405,51.49,59.67,33.66,35.6
"2016-02-27 06:50:00",224310,0.882,155.2,-6.007,56.43,4.386759,0,869.2572,0,24.69,2.965,192,0.67,1.267,9.460806,2.209,51.49,59.67,33.66,35.6
"2016-02-27 07:00:00",224311,1.366,172,-5.484,54.21,7.931576,0,869.3879,0,24.78,2.961,174,0.704,1.301,14.86644,1.896,51.49,59.67,33.66,35.6
"2016-02-27 07:10:00",224312,1.091,164.2,-5.219,52.29,14.98973,0,869.272,0,24.86,2.959,170,0.723,1.328,21.20146,1.472,51.49,59.67,33.66,35.6
"2016-02-27 07:20:00",224313,1.35,164.3,-4.86,50.46,50.47331,0,869.0527,0,24.62,2.96,170,0.723,1.328,37.06557,0.753,51.55,59.67,33.68,35.6
"2016-02-27 07:30:00",224314,1.361,161.6,-4.502,48.88,81.21603,0,868.6775,0,24.78,2.956,179,0.71,1.328,52.89934,0.666,51.55,59.67,33.68,35.6
"2016-02-27 07:40:00",224315,1.323,154.4,-3.799,44.51,87.82961,0,868.5868,0,24.54,2.953,174,0.664,1.302,59.72371,0.717,51.55,59.67,33.68,35.6
"2016-02-27 07:50:00",224316,1.384,160.2,-3.328,43.28,150.5072,0,868.6331,0,24.55,2.951,174,0.638,1.249,67.42817,0.452,51.55,59.67,33.68,35.6
"2016-02-27 08:00:00",224317,0.416,336.6,-3.368,44.9,101.8881,0,868.6901,0,24.49,2.956,174,0.667,1.235,78.08127,0.841,51.49,59.67,33.66,35.6
"2016-02-27 08:10:00",224318,0.46,47.22,-3.337,44.09,78.41341,0,868.6739,0,24.38,2.952,179,0.66,1.233,89.85938,1.146,51.55,59.67,33.68,35.6
"2016-02-27 08:20:00",224319,0.478,118.7,-3.201,45.08,84.19496,0,868.8586,0,24.01,2.958,183,0.642,1.247,98.69415,1.174,51.49,59.67,33.66,35.6
"2016-02-27 08:30:00",224320,0.583,145.7,-4.378,59.65,96.07494,0,868.8616,0,25.04,2.951,187,0.656,1.281,101.4289,1.058,51.49,59.67,33.66,35.6
"2016-02-27 08:40:00",224321,0.828,140.3,-3.646,56.29,111.2576,0,868.8619,0,24.58,2.954,192,0.64,1.272,107.0725,0.966,51.49,59.67,33.66,35.6
"2016-02-27 08:50:00",224322,1.138,147,-3.659,52.39,128.0621,0,869.0343,0,24.56,2.953,182,0.629,1.266,112.8847,0.911,51.49,59.67,33.66,35.6
"2016-02-27 09:00:00",224323,0.75,132.9,-3.245,52.49,121.6461,0,869.1077,0,24.63,2.95,179,0.629,1.259,116.1486,0.958,51.49,59.67,33.66,35.6
"2016-02-27 09:10:00",224324,0.553,89,-2.929,50.68,133.5674,0,869.1766,0,24.54,2.951,188,0.661,1.269,116.8398,0.881,51.55,59.67,33.68,35.6
"2016-02-27 09:20:00",224325,0.57,118,-2.708,50.44,143.8623,0,869.2899,0,24.77,2.947,188,0.596,1.212,117.4632,0.825,51.49,59.67,33.66,35.6
"2016-02-27 09:30:00",224326,0.255,339.2,-2.829,50.65,139.0512,0,869.2855,0,24.98,2.945,192,0.628,1.144,119.2108,0.86,51.49,59.67,33.66,35.6
"2016-02-27 09:40:00",224327,0.439,82.1,-2.565,51.43,139.0845,0,869.2832,0,24.5,2.948,179,0.602,1.118,121.2375,0.872,51.49,59.67,33.66,35.6
"2016-02-27 09:50:00",224328,0.518,16.72,-2.547,53.03,142.8488,0,869.3389,0,24.71,2.947,187,0.618,1.114,123.9726,0.868,51.49,59.67,33.66,35.6
"2016-02-27 10:00:00",224329,0.351,2.603,-2.415,52,151.8241,0,869.5214,0,24.7,2.945,185,0.604,1.143,126.6142,0.834,51.49,59.67,33.66,35.6
"2016-02-27 10:10:00",224330,0.438,351.3,-2.127,52.62,218.6065,0,869.5212,0,24.11,2.95,187,0.57,1.185,133.1457,0.691,51.55,59.67,33.68,35.6
"2016-02-27 10:20:00",224331,0.603,351.8,-1.816,54.62,221.677,0,869.5211,0,23.66,2.952,186,0.572,1.202,137.8614,0.695,51.49,59.67,33.66,35.6
"2016-02-27 10:30:00",224332,0.442,1.158,-1.657,53.58,164.7431,0,869.5211,0,23.93,2.949,190,0.592,1.225,143.7031,0.872,51.55,59.61,33.68,35.59
"2016-02-27 10:40:00",224333,0.584,113.2,-1.406,53.61,169.8346,0,869.5211,0,23.66,2.951,169,0.598,1.249,154.4615,0.909,51.55,59.61,33.68,35.59
"2016-02-27 10:50:00",224334,0.853,128.2,-0.931,51.46,190.7233,0,869.5176,0,23.2,2.953,177,0.595,1.231,166.8121,0.878,51.49,59.67,33.66,35.6
"2016-02-27 11:00:00",224335,1.241,120.8,-0.832,50.45,296.1718,0,869.5164,0,23.17,2.951,178,0.593,1.241,195.6441,0.667,51.49,59.61,33.66,35.59
"2016-02-27 11:10:00",224336,0.735,127.3,-0.424,49.63,355.0883,0,869.496,0,23.19,2.95,191,0.581,1.228,214.1157,0.604,51.49,59.61,33.66,35.59
"2016-02-27 11:20:00",224337,0.482,144.3,-0.064,49.01,371.0079,0,869.3653,0,22.91,2.952,191,0.562,1.194,222.2271,0.598,51.49,59.61,33.66,35.59
"2016-02-27 11:30:00",224338,1.086,137.4,-0.709,49.68,272.8414,0,869.2089,0,23.27,2.952,192,0.535,1.156,161.446,0.591,51.49,59.61,33.66,35.59
"2016-02-27 11:40:00",224339,0.524,116.6,-0.078,51.89,386.0112,0,869.1835,0,22.75,2.951,187,0.516,1.137,230.684,0.594,51.55,59.61,33.68,35.59
"2016-02-27 11:50:00",224340,0.901,137.9,-0.207,50.69,280.5483,0,869.1772,0,22.86,2.955,183,0.511,1.113,165.3481,0.586,51.49,59.61,33.66,35.59
"2016-02-27 12:00:00",224341,0.879,118.2,-0.829,53.17,251.9598,0,869.172,0,22.67,2.956,182,0.505,1.131,139.4141,0.566,51.49,59.61,33.66,35.59
"2016-02-27 12:10:00",224342,0.648,135.6,-0.169,52.1,396.252,0,869.0075,0,22.44,2.956,192,0.509,1.12,225.1257,0.568,51.49,59.61,33.66,35.59
"2016-02-27 12:20:00",224343,0.966,134.3,-0.403,52.59,220.7053,0,868.9232,0,22.36,2.961,192,0.517,1.109,127.5295,0.578,51.49,59.61,33.66,35.59
"2016-02-27 12:30:00",224344,0.916,134.2,-0.973,55.47,151.5401,0,868.8389,0,22.45,2.962,192,0.506,1.141,89.08461,0.589,51.49,59.61,33.66,35.59
"2016-02-27 12:40:00",224345,0.636,104.6,-1.207,56.88,85.77458,0,868.7357,0,22.49,2.962,192,0.505,1.165,51.60602,0.601,51.49,59.61,33.66,35.59
"2016-02-27 12:50:00",224346,0.444,106.9,-1.184,59.47,81.78927,0,868.6661,0,22.45,2.962,192,0.532,1.193,49.25271,0.602,51.49,59.61,33.66,35.59
"2016-02-27 13:00:00",224347,0.898,120.3,-1.436,61.34,65.31744,0,868.5525,0,22.48,2.964,192,0.584,1.193,39.66516,0.607,51.49,59.61,33.66,35.59
"2016-02-27 13:10:00",224348,0.698,98.1,-1.496,62.87,148.9932,0,868.325,0,22.5,2.962,187,0.589,1.185,88.06143,0.594,51.49,59.61,33.66,35.59
"2016-02-27 13:20:00",224349,0.854,149.3,-1.134,63.64,175.6209,0,868.1544,0,22.49,2.962,186,0.589,1.191,100.4608,0.576,51.49,59.61,33.66,35.59
"2016-02-27 13:30:00",224350,1.167,135.3,-1.108,64.44,170.3426,0,867.9648,0,22.2,2.964,187,0.587,1.172,99.32018,0.583,51.49,59.61,33.66,35.59
"2016-02-27 13:40:00",224351,1.146,146,-1.311,66.65,109.1912,0,867.929,0,22.5,2.962,179,0.573,1.107,65.17258,0.597,51.49,59.61,33.66,35.59
"2016-02-27 13:50:00",224352,0.751,69.59,-1.346,68.77,78.06335,0,867.9122,0,22.59,2.962,192,0.529,1.045,46.45982,0.599,51.49,59.61,33.66,35.59
"2016-02-27 14:00:00",224353,0.732,88.8,-1.347,69.72,71.15784,0,867.9101,0,22.32,2.964,190,0.522,1.031,43.47744,0.611,51.49,59.61,33.66,35.59
"2016-02-27 14:10:00",224354,0.557,72.57,-1.363,71.92,70.80805,0,867.8995,0,22.44,2.963,191,0.527,1.027,43.04165,0.608,51.44,59.61,33.65,35.59
"2016-02-27 14:20:00",224355,0.576,112.2,-1.399,73.67,70.45432,0,867.9143,0,22.49,2.963,191,0.523,1.028,42.8787,0.608,51.44,59.61,33.65,35.59
"2016-02-27 14:30:00",224356,0.727,111.6,-1.539,75.16,54.71026,0,867.9269,0,22.48,2.964,190,0.535,1.031,33.3863,0.61,51.49,59.61,33.66,35.59
"2016-02-27 14:40:00",224357,0.718,128,-1.462,75.42,114.8791,0,867.9185,0,22.5,2.963,191,0.555,1.041,68.39645,0.598,51.49,59.61,33.66,35.59
"2016-02-27 14:50:00",224358,0.77,106.6,-1.481,75.67,119.2504,0,867.8975,0,22.62,2.961,191,0.572,1.056,70.68291,0.595,51.44,59.61,33.65,35.59
"2016-02-27 15:00:00",224359,0.911,142.1,-1.336,76.18,89.09039,0,867.9034,0,22.46,2.963,190,0.575,1.071,52.46714,0.591,51.44,59.61,33.65,35.59
"2016-02-27 15:10:00",224360,0.557,143.6,-1.436,77.45,76.56296,0,867.9365,0,22.43,2.964,190,0.599,1.102,45.92413,0.6,51.49,59.61,33.66,35.59
"2016-02-27 15:20:00",224361,0.952,147.5,-1.672,79.44,58.02894,0,867.9599,0,22.49,2.965,192,0.589,1.133,34.89495,0.601,51.49,59.61,33.66,35.59
"2016-02-27 15:30:00",224362,0.881,118.3,-1.837,81.8,42.00661,0,867.968,0,22.48,2.966,191,0.583,1.174,25.78733,0.613,51.49,59.61,33.66,35.59
"2016-02-27 15:40:00",224363,0.757,121.3,-2.012,83.8,31.7194,0,868.045,0,22.54,2.966,192,0.585,1.188,19.91645,0.627,51.49,59.56,33.66,35.58
"2016-02-27 15:50:00",224364,0.565,138.3,-2.085,86.5,33.37127,0,868.2125,0,22.52,2.966,192,0.596,1.193,21.20949,0.635,51.49,59.56,33.66,35.58
"2016-02-27 16:00:00",224365,0.458,127.9,-2.109,88.7,35.89563,0,868.2366,0,22.64,2.965,193,0.601,1.195,23.07095,0.643,51.44,59.56,33.65,35.58
"2016-02-27 16:10:00",224366,0.511,116.1,-2.143,91.5,41.65555,0,868.2829,0,22.57,2.966,174,0.595,1.195,26.78224,0.643,51.44,59.56,33.65,35.58
"2016-02-27 16:20:00",224367,0.577,117.4,-2.166,93.5,34.79882,0,868.4025,0,22.74,2.965,192,0.591,1.196,22.27495,0.649,51.49,59.56,33.66,35.58
"2016-02-27 16:30:00",224368,0.295,96.8,-2.158,95.2,28.61831,0,868.5177,0,22.76,2.964,191,0.591,1.196,19.1968,0.67,51.44,59.56,33.65,35.58
"2016-02-27 16:40:00",224369,0.518,133.6,-2.226,96.2,39.61507,0,868.5455,0,22.94,2.962,174,0.591,1.196,25.94448,0.655,51.44,59.56,33.65,35.58
"2016-02-27 16:50:00",224370,0.43,114.9,-2.217,97.2,21.62002,0,868.5098,0,23.16,2.961,191,0.592,1.196,14.50374,0.676,51.49,59.56,33.66,35.58
"2016-02-27 17:00:00",224371,0.433,121.5,-2.33,96.7,13.60736,0,868.5139,0,23.1,2.962,191,0.591,1.196,9.503627,0.7,51.44,59.56,33.65,35.58
"2016-02-27 17:10:00",224372,0.234,177.6,-2.425,96.2,2.618463,0,868.7162,0,23.2,2.961,193,0.591,1.197,2.380645,0.952,51.44,59.56,33.65,35.58
"2016-02-27 17:20:00",224373,0.629,151.8,-2.412,95.7,2.107352,0,868.8173,0,23.1,2.962,176,0.591,1.2,2.247966,1.091,51.44,59.56,33.65,35.58
"2016-02-27 17:30:00",224374,1.122,149.6,-2.543,94.3,5.555388,0,868.6761,0,23,2.964,195,0.591,1.216,4.719591,0.894,51.44,59.56,33.65,35.58
"2016-02-27 17:40:00",224375,0.837,159.2,-2.599,93,1.207009,0,868.7014,0,22.8,2.966,228,0.589,1.205,1.789275,1.385,51.44,59.56,33.65,35.58
"2016-02-27 17:50:00",224376,0.555,155.1,-2.557,92.7,0,0,868.7499,0,22.8,2.966,195,0.578,1.182,0.4132012,0,51.44,59.56,33.65,35.58
"2016-02-27 18:00:00",224377,0.903,159.4,-2.602,92.4,0,0,868.7626,0,22.95,2.965,176,0.563,1.16,0.2274502,0,51.44,59.56,33.65,35.58
"2016-02-27 18:10:00",224378,1.034,149.4,-2.699,94,0,0,868.6741,0,23.09,2.964,193,0.565,1.164,0.2274502,0,51.44,59.56,33.65,35.58
"2016-02-27 18:20:00",224379,1.349,162.3,-2.674,93.9,0,0,868.5392,0,22.95,2.965,174,0.556,1.154,0.2274502,0,51.44,59.56,33.65,35.58
"2016-02-27 18:30:00",224380,0.866,148.9,-2.61,93.3,0,0,868.7773,0,23,2.964,177,0.549,1.16,0.2274502,0,51.44,59.56,33.65,35.58
"2016-02-27 18:40:00",224381,0.784,144.7,-2.473,93.2,0,0,868.9416,0,22.91,2.964,172,0.55,1.166,0.2274502,0,51.49,59.56,33.66,35.58
"2016-02-27 18:50:00",224382,0.866,154.8,-2.434,92.5,0,0,868.9584,0,22.98,2.963,177,0.55,1.176,0.2274502,0,51.44,59.56,33.65,35.58
"2016-02-27 19:00:00",224383,0.73,156.6,-2.4,92.8,0,0,869.0237,0,23,2.963,177,0.558,1.195,0.2274502,0,51.38,59.56,33.64,35.58
"2016-02-27 19:10:00",224384,0.573,136,-2.378,94.1,0,0,869.0343,0,22.96,2.963,178,0.548,1.172,0.2274502,0,51.44,59.56,33.65,35.58
"2016-02-27 19:20:00",224385,0.483,134,-2.335,94.4,0,0,868.9922,0,23.03,2.962,188,0.547,1.179,0.2274502,0,51.44,59.5,33.65,35.56
"2016-02-27 19:30:00",224386,0.675,149.9,-2.308,95.2,0,0,869.0154,0,23.16,2.961,195,0.548,1.176,0.2274502,0,51.44,59.56,33.65,35.58
"2016-02-27 19:40:00",224387,0.414,75.5,-2.295,96,0,0,869.0154,0,23.21,2.96,196,0.548,1.173,0.2274502,0,51.44,59.56,33.65,35.58
"2016-02-27 19:50:00",224388,0.577,82.9,-2.27,97.5,0,0,868.9964,0,23.31,2.959,197,0.548,1.183,0.2274502,0,51.44,59.56,33.65,35.58
"2016-02-27 20:00:00",224389,0.836,85.4,-2.248,97.8,0,0,869.0975,0,23.31,2.959,197,0.55,1.19,0.2274502,0,51.44,59.5,33.65,35.56
"2016-02-27 20:10:00",224390,0.774,85.7,-2.254,98.3,0,0,869.1291,0,22.96,2.963,200,0.548,1.171,0.1933327,0,51.44,59.5,33.65,35.56
"2016-02-27 20:20:00",224391,0.484,48.16,-2.386,100,0,0,869.2071,0,23.6,2.957,172,0.548,1.173,0,0,51.44,59.5,33.65,35.56
"2016-02-27 20:30:00",224392,0.256,67.8,-2.45,100,0,0,869.2324,0,23.9,2.954,182,0.548,1.174,0,0,51.44,59.5,33.65,35.56
"2016-02-27 20:40:00",224393,0.331,38.15,-2.486,100,0,0,869.0659,0,23.9,2.955,190,0.548,1.174,0.003790837,0,51.44,59.5,33.65,35.56
"2016-02-27 20:50:00",224394,0.488,58.18,-2.58,100,0,0,869.0217,0,24.42,2.95,177,0.548,1.173,0,0,51.44,59.5,33.65,35.56
"2016-02-27 21:00:00",224395,0.248,34.45,-2.592,100,0,0,869.2092,0,24.39,2.95,190,0.548,1.182,0,0,51.38,59.5,33.64,35.56
"2016-02-27 21:10:00",224396,0.27,43.83,-2.612,100,0,0,869.2598,0.5,24.74,2.947,177,0.549,1.19,0,0,51.44,59.5,33.65,35.56
"2016-02-27 21:20:00",224397,0.392,35.87,-2.628,100,0,0,869.2682,0,24.52,2.949,175,0.548,1.174,0.03790836,0,51.44,59.5,33.65,35.56
"2016-02-27 21:30:00",224398,0.129,20.13,-2.616,100,0,0,869.4052,0,24.69,2.947,194,0.548,1.183,0.0416992,0,51.44,59.5,33.65,35.56
"2016-02-27 21:40:00",224399,0.172,46.64,-2.55,100,0,0,869.344,0,24.81,2.946,193,0.549,1.187,0.08718923,0,51.38,59.5,33.64,35.56
"2016-02-27 21:50:00",224400,0.044,11.61,-2.529,100,0,0,869.4979,0,24.67,2.947,189,0.548,1.181,0.09477091,0,51.44,59.5,33.65,35.56
"2016-02-27 22:00:00",224401,0.038,313.5,-2.502,100,0,0,869.6201,0,24.84,2.945,172,0.548,1.193,0.02653586,0,51.44,59.5,33.65,35.56
"2016-02-27 22:10:00",224402,0.067,13.2,-2.569,100,0,0,869.816,0,24.89,2.945,190,0.549,1.186,0.01137251,0,51.44,59.5,33.65,35.56
"2016-02-27 22:20:00",224403,0.066,67.02,-2.54,100,0,0,869.974,0,24.89,2.945,191,0.548,1.185,0,0,51.38,59.5,33.64,35.56
"2016-02-27 22:30:00",224404,0.239,52.35,-2.668,100,0,0,870.0183,0,24.91,2.945,172,0.549,1.179,0,0,51.38,59.5,33.64,35.56
"2016-02-27 22:40:00",224405,0.21,97.8,-2.623,100,0,0,870.0246,0,24.89,2.945,173,0.548,1.188,0.003790837,0,51.44,59.5,33.65,35.56
"2016-02-27 22:50:00",224406,0.09,75.42,-2.559,100,0,0,870.0267,0,24.87,2.945,173,0.548,1.175,0.1440518,0,51.44,59.5,33.65,35.56
"2016-02-27 23:00:00",224407,0.035,99,-2.561,100,0,0,870.0309,0,24.91,2.945,186,0.548,1.192,0.03790836,0,51.38,59.5,33.64,35.56
"2016-02-27 23:10:00",224408,0.005,41.23,-2.574,100,0,0,870.2037,0,24.91,2.945,177,0.55,1.19,0,0,51.44,59.5,33.65,35.56
"2016-02-27 23:20:00",224409,0.11,171.2,-2.626,100,0,0,870.092,0.5,24.59,2.948,216,0.548,1.186,0,0,51.44,59.5,33.65,35.56
"2016-02-27 23:30:00",224410,0.06,82.4,-2.603,100,0,0,870.1405,0,25.61,2.938,172,0.548,1.183,0,0,51.44,59.5,33.65,35.56
"2016-02-27 23:40:00",224411,0.183,47.07,-2.634,100,0,0,870.1973,0,25.58,2.939,177,0.553,1.185,0,0,51.44,59.44,33.65,35.55
"2016-02-27 23:50:00",224412,0.113,175.9,-2.694,100,0,0,870.1005,0,25.53,2.939,176,0.549,1.192,0,0,51.38,59.5,33.64,35.56
